Flag for West Bank Weather past 2 weeks in Hebron, West Bank

Now
75 °F

Passing clouds.


Feels Like: 78 °F
Forecast: 55 / 76 °F
Wind: 10 mph from West

Location: Ben Gurion International Airport


UV Index: 7 (High)

Visibility: N/A


Pressure: 29.86 "Hg

Humidity: 50%

Dew point: 55 °F

Location of HebronLocation

Historic Weather in Hebron

°F

Hebron temperature yesterday

Maximum temperature yesterday: 82 °F (at 12:50 PM)
Minimum temperature yesterday: 63 °F (at 3:50 AM)
Average temperature yesterday: 72 °F

Past Weeks' High & Low Weather Summary

 TemperatureHumidityPressure
High88 °F (Apr 6, 1:20 PM)88% (Apr 3, 6:50 AM)30.15 "Hg (Apr 3, 6:50 AM)
Low52 °F (Apr 5, 5:50 AM)20% (Apr 6, 11:50 AM)29.80 "Hg (Apr 16, 2:50 AM)
Average67 °F60%29.97 "Hg
* Reported Apr 2 11:20 AM — Apr 17 11:50 AM, Hebron, Weather by CustomWeather, © 2014

Note: Actual official high and low records may vary slightly from our data, if they occured in-between our weather recording intervals... More about our weather records

Advertising

Historic Weather Conditions — Data for Previous 24 hours

 ConditionsComfort  
Time TempWeatherWind HumidityBarometerVisibility
11:50 AM
Apr 17
75 °FPassing clouds.10 mph61%29.86 "HgN/A
11:20 AM77 °FScattered clouds.6 mph57%29.86 "HgN/A
10:50 AM75 °FPassing clouds.5 mph54%29.86 "HgN/A
10:20 AM73 °FPassing clouds.6 mph61%29.86 "HgN/A
9:50 AM72 °FScattered clouds.6 mph65%29.86 "HgN/A
9:20 AM70 °FPartly sunny.5 mph69%29.86 "HgN/A
8:50 AM70 °FPartly sunny.5 mph73%29.86 "HgN/A
8:20 AM68 °FScattered clouds.7 mph78%29.86 "HgN/A
7:50 AM66 °FPartly sunny.7 mph78%29.86 "HgN/A
7:20 AM64 °FPartly sunny.5 mph83%29.86 "HgN/A
6:50 AM64 °FPassing clouds.5 mph83%29.83 "HgN/A
6:20 AM64 °FPassing clouds.6 mph78%29.83 "HgN/A
5:50 AM64 °FPassing clouds.7 mph78%29.83 "HgN/A
5:20 AM63 °FPassing clouds.6 mph77%29.83 "HgN/A
4:50 AM63 °FPassing clouds.6 mph77%29.83 "HgN/A
4:20 AM63 °FPassing clouds.5 mph73%29.83 "HgN/A
3:50 AM63 °FPassing clouds.6 mph68%29.83 "HgN/A
3:20 AM63 °FPassing clouds.7 mph68%29.83 "HgN/A
2:50 AM61 °FClear.5 mph72%29.80 "Hg10 mi
2:20 AM63 °FClear.5 mph68%29.80 "Hg10 mi
1:50 AM64 °FClear.1 mph64%29.83 "Hg10 mi
1:20 AM66 °FClear.3 mph64%29.83 "Hg10 mi
12:50 AM66 °FClear.1 mph64%29.83 "Hg10 mi
12:20 AM66 °FClear.5 mph60%29.83 "Hg10 mi
11:50 PM
Apr 16
68 °FPassing clouds.5 mph60%29.83 "HgN/A
11:20 PM70 °FClear.2 mph57%29.83 "Hg10 mi
10:50 PM68 °FClear.6 mph56%29.83 "Hg10 mi
10:20 PM70 °FClear.7 mph53%29.83 "Hg10 mi
9:50 PM70 °FClear.6 mph53%29.83 "Hg10 mi
9:20 PM72 °FClear.6 mph53%29.83 "Hg10 mi
8:50 PM72 °FClear.7 mph53%29.83 "Hg10 mi
8:20 PM72 °FClear.7 mph50%29.83 "Hg10 mi
7:50 PM72 °FSunny.6 mph50%29.83 "Hg10 mi
7:20 PM73 °FSunny.10 mph47%29.83 "Hg10 mi
6:50 PM73 °FSunny.10 mph47%29.83 "Hg10 mi
6:20 PM75 °FSunny.12 mph44%29.83 "Hg10 mi
5:50 PM77 °FSunny.15 mph44%29.83 "Hg10 mi
5:20 PM77 °FSunny.14 mph44%29.83 "Hg10 mi
4:50 PM79 °FSunny.12 mph42%29.83 "Hg10 mi
4:20 PM79 °FSunny.15 mph42%29.83 "Hg10 mi
3:50 PM81 °FSunny.14 mph42%29.83 "Hg10 mi
3:20 PM81 °FSunny.14 mph42%29.83 "Hg10 mi
2:50 PM81 °FSunny.13 mph39%29.83 "Hg10 mi
2:20 PM81 °FSunny.10 mph39%29.86 "Hg10 mi
1:50 PM82 °FSunny.9 mph37%29.86 "Hg10 mi
1:20 PM82 °FPassing clouds.9 mph37%29.89 "HgN/A
Weather by CustomWeather, © 2014

See weather overview